sat.trackr.live / text

‹ back to catalog

STARLINK-1504

NORAD 45746 · 2020-038S

PAYLOAD ACTIVE UNKNOWN

§ Identity

Operator
Country
US
Launch date
2020-06-13
Launch site
AFETR
Launch vehicle
Mass (kg)
RCS (m²)

Purposes: comms

External: N2YO · Heavens-Above · Gunter

§ Orbital elements

Epoch: 2026-05-25T03:12:12.876768Z

Period
92.43 min
Inclination
53.0194°
Eccentricity
0.0003706
Mean motion
15.57976781 rev/d
Perigee alt
391.0 km
Apogee alt
396.0 km
Semi-major
6,771.7 km
B*
4.2285e-4
RAAN
131.9528°
Arg perigee
58.4978°
Mean anomaly
301.6394°
Rev number
32,941

§ Raw data

STARLINK-15041 45746U 20038S   26145.13348237  .00031872  00000+0  42285-3 0  99922 45746  53.0194 131.9528 0003706  58.4978 301.6394 15.57976781329417

JSON: /api/v1/satellites/45746 · /tle

For live sub-satellite position, see the globe view (requires WebGL).

§ Visibility from observer

Set your observer location to see the next 7 days of passes ≥ 10°. The values pass through the URL so the page stays shareable.

No JS? Fill the form by hand. The geolocation button needs JavaScript.